Regional Weather Roundup
Issued by NWS

Home | Current Version | Previous Version | Text Only | Print | Product List | Glossary On
Versions: 1 2 3 4 5 6 7 8 9 10 11 12 13 14 15 16 17 18 19 20 21 22 23 24 25 26 27 28 29 30 31 32 33 34 35 36 37 38 39 40 41 42 43 44 45 46 47 48 49 50
000
ASUS44 KFWD 261515
RWRTX
NORTH TEXAS HOURLY WEATHER ROUNDUP
NATIONAL WEATHER SERVICE FORT WORTH TX
1000 AM CDT THU APR 26 2018

NOTE: "FAIR" INDICATES FEW OR NO CLOUDS BELOW 12,000 FEET WITH NO
SIGNIFICANT WEATHER AND/OR OBSTRUCTIONS TO VISIBILITY.

TXZ118-119-261600-
DALLAS/FORT WORTH METROPLEX

CITY           SKY/WX    TMP DP  RH WIND       PRES   REMARKS
DFW AIRPORT    FAIR      56  45  66 N8        30.04F
DALLAS LOVE    FAIR      57  46  66 N7        30.06F
FTW MEACHAM    FAIR      60  47  61 NW5       30.06S
FTW-ALLIANCE   FAIR      60  48  64 NW6       30.05F
FTW-NAS-JRB    FAIR      59  46  62 CALM      30.07S
FTW-SPINKS     SUNNY     59  46  63 N7        30.08S
ARLINGTON      FAIR      58  45  62 NW8       30.06F
GRAND PRAIRIE  SUNNY     59  45  58 NW7       30.08S
ADDISON        SUNNY     55  45  67 NW7       30.07S
MESQUITE       SUNNY     55  46  71 N8        30.06F
LANCASTER      FAIR      56  46  70 NW5       30.07F
$$

TXZ091>094-102>105-117-120-121-131>134-261600-
NORTH CENTRAL TEXAS

CITY           SKY/WX    TMP DP  RH WIND       PRES   REMARKS
SHRMAN/DENISON FAIR      55  46  71 NW10      30.06S
GAINESVILLE    FAIR      55  44  65 N7        30.08S
BOWIE          FAIR      56  45  65 CALM      30.06S
BRIDGEPORT     FAIR      57  47  67 CALM      30.07F
DECATUR        FAIR      56  45  66 CALM      30.05F
DENTON         FAIR      56  46  69 N10       30.06F
MCKINNEY       FAIR      56  47  71 N7        30.05F
BONHAM         FAIR      54  45  72 NW10      30.05S
GREENVILLE     FAIR      57  46  67 NW6       30.06R
ROCKWALL       FAIR      56  46  69 MISG      30.06F
TERRELL        FAIR      57  46  66 N6        30.06F
WAXAHACHIE     FAIR      57  48  70 NW7       30.07F
GRANBURY       FAIR      55  51  87 CALM      30.08S
$$

TXZ083>090-098>101-113>116-127>130-139>142-154-155-261600-
WESTERN NORTH TEXAS

CITY           SKY/WX    TMP DP  RH WIND       PRES   REMARKS
WICHITA FALLS  FAIR      57  47  69 E3        30.04F
WF-KICKAPOO    FAIR      56  47  70 SE5       30.07F
VERNON         FAIR      55  48  75 S3        30.03F
ABILENE        FAIR      57  48  72 W5        30.05F
ABILENE-DYESS  FAIR      59  44  58 SW9       30.05S
GRAHAM           N/A     55  50  83 CALM      30.05R
BRECKENRIDGE   FAIR      59  48  67 W5        30.05F
CISCO          FAIR      61  46  59 NW6       30.06S
EASTLAND       FAIR      58  49  73 CALM      30.06S
RANGER         FAIR      58  47  65 CALM      30.06S
MINERAL WELLS  FAIR      54  50  86 CALM      30.05S
STEPHENVILLE   FAIR      56  48  74 CALM      30.09S
COMANCHE       FAIR      58  49  74 CALM      30.07F
BROWNWOOD      FAIR      50  50 100 CALM      30.08F
COLEMAN        FAIR      60  47  61 CALM      30.07S
BRADY          FAIR      59  43  55 CALM      30.07S
$$

TXZ143>147-156>162-174-175-261600-
CENTRAL TEXAS

CITY           SKY/WX    TMP DP  RH WIND       PRES   REMARKS
WACO           FAIR      61  46  57 N5        30.07F
WACO-TSTC      SUNNY     59  48  67 N7        30.08S
WACO-MCGREGOR  FAIR      60  48  64 VRB6      30.08S
HILLSBORO      FAIR      55  51  84 NW5       30.07S
CORSICANA      FAIR      57  48  72 N8        30.08F
MEXIA          FAIR      58  45  60 NW10      30.07S
HEARNE         FAIR      58  47  64 NW6       30.09F
CAMERON        FAIR      59  48  67 NW5       30.09S
TEMPLE         FAIR      59  46  62 VRB5      30.09R
KILLEEN        SUNNY     59  43  55 N5        30.09S
KILLEEN-SKYLRK FAIR      59  47  64 VRB3      30.08F
FORT HOOD      FAIR      58  48  68 N5        30.04F
GATESVILLE     FAIR      59  46  63 N5        30.09F
HAMILTON       FAIR      59  48  66 CALM      30.08S
LAMPASAS       FAIR      59  45  59 NE5       30.06F
$$

TXZ095>097-106>112-122>126-135>138-148>153-164>167-261600-
EAST TEXAS

CITY           SKY/WX    TMP DP  RH WIND       PRES   REMARKS
PARIS          PTSUNNY   53  47  79 N9        30.03S
SULPHUR SPRNGS FAIR      56  47  74 NW7       30.06S
MOUNT PLEASANT FAIR      54  47  76 NW12      30.05S
GILMER         FAIR      54  47  78 NW3       30.03F
MINEOLA        FAIR      55  46  71 NW8       30.05S
TYLER          FAIR      56  46  69 NW10      30.04F
LONGVIEW       FAIR      56  49  77 NW12      30.03S
MARSHALL       CLOUDY    53  46  78 NW8       30.05R
ATHENS         FAIR      55  45  67 N8        30.05F
PALESTINE      FAIR      53  52  97 NW8       30.07S
JACKSONVILLE   FAIR      56  48  73 NW9       30.06S
HENDERSON      FAIR      56  47  70 W7        30.05S
CENTER         FAIR      57  45  63 NW12      30.03F
NACOGDOCHES      N/A     57  47  69 NW13      30.05S
LUFKIN         FAIR      59  46  62 NW8       30.04S
$$

SUPPLEMENTAL OBSERVATIONS (NWS FORT WORTH AREA)

CITY           SKY/WX    TMP DP  RH WIND       PRES   REMARKS
DENISON DAM      N/A     54  43  66 NW13        N/A
CADDO GRASSLND   N/A     57  48  72 NW5         N/A
LBJ GRASSLAND    N/A     57  46  67 NW2         N/A
POSSUM KINGDOM   N/A     61  50  67 W3          N/A
GRANBURY         N/A     61  52  72 SE1         N/A
COMANCHE         N/A     63  46  55 E2          N/A
MCGREGOR         N/A     63  45  51 N6          N/A
TEMPLE           N/A     63  46  55 N7          N/A
LAKE LIMESTONE   N/A     61  45  55 N8          N/A
ATHENS           N/A     59  48  67 NW3         N/A
PALESTINE        N/A     61  48  63 NW10        N/A
$$

SUPPLEMENTAL OBSERVATIONS (NWS NORMAN AREA)

CITY           SKY/WX    TMP DP  RH WIND       PRES   REMARKS
GOODLETT         N/A     60  42  51 SE5       30.02F
ODELL            N/A     58  49  69 SE5       30.04F
CROWELL          N/A     59  44  57 SW9       30.04F
KNOX CITY        N/A     60  44  55 SW7       30.05F
SEYMOUR          N/A     59  47  66 S6        30.05S
MILLERS CREEK    N/A     59  48  67 SW5         N/A
$$

SUPPLEMENTAL OBSERVATIONS (NWS SAN ANGELO AREA)

CITY           SKY/WX    TMP DP  RH WIND       PRES   REMARKS
WEINERT          N/A     61  45  56 W9        30.05F
HASKELL          N/A     59  45  60 W7        30.05S
THROCKMORTON     N/A     58  49  71 SW5       30.06S
STAMFORD         N/A     60  49  67 W10       30.06S
CLYDE            N/A     59  46  62 W6        30.07S
HAMBY            N/A     59  48  67 W7          N/A
IVIE RESERVOIR   N/A     61  48  63 NW2         N/A
COLORADO BEND    N/A     61  48  63 W2          N/A
$$

SUPPLEMENTAL OBSERVATIONS (NWS SHREVEPORT AREA)

CITY           SKY/WX    TMP DP  RH WIND       PRES   REMARKS
TEXARKANA        N/A     55  46  71 N7G15       N/A
LINDEN           N/A     57  48  72 NW8         N/A
CADDO LAKE       N/A     57  48  72 NW5         N/A
LUFKIN           N/A     61  46  59 MISG        N/A
N SABINE NF      N/A     61  48  63 MISG        N/A
$$

SUPPLEMENTAL OBSERVATIONS ARE A COLLECTION OF AUTOMATED INSTRUMENTS
THAT ARE MAINTAINED BY A VARIETY OF FEDERAL AND STATE AGENCIES.
CERTAIN ELEMENTS...SUCH AS HUMIDITY VALUES AND SUSTAINED WIND
SPEEDS...MAY BE APPROXIMATED.




USA.gov is the U.S. government's official web portal to all federal, state and local government web resources and services.